Location: Pasadena, ca
(34.1243°N, 118.1037°W)
Time: 02:11:11
(UTC-07:00)

N. Korean satellite - Pass Details

Date: 12 October 2017
Orbit: 459 x 517 km, 97.2° (Epoch: 18 October)

Event Time Altitude Azimuth Distance (km) Brightness Sun altitude
Rises 18:42:37 0° 157° (SSE) 2,564 10.1 -5.2°
Reaches altitude 10° 18:44:44 10° 151° (SSE) 1,677 9.1 -5.6°
Maximum altitude 18:48:13 49° 76° (ENE) 631 6.7 -6.3°
Drops below altitude 10° 18:51:40 10° 1° (N) 1,656 9.2 -7.0°
Sets 18:53:45 0° 356° (N) 2,529 10.2 -7.5°
